Showing default

EXPRESS AM-6, 40277

Orbit data source: Space-Track

EXPRESS AM-6, 40277 is a payload satellite owned by KosSvyaz (CIS) in GEO that was launched on Tue, 21 Oct 2014 UTC via a PROTON-M/BRIZ-M launch vehicle from the Tyuratam Missile And Space Complex (TTMTR). Payload-class satellites include a variety of spacecraft equipped with specific instruments for various scientific and technological missions. These include communications satellites like Starlink; space stations such as the ISS; scientific satellites like the Hubble; Earth observation satellites from companies like Planet Labs, Umbra, and HawkEye 360; GPS; miniature CubeSats for education and research; and military/defense satellites.

Not visible in the next 10 days
Identifier
40277, 2014-064A
Orbit
GEO
Country
Flag of CISCIS
Related business
Manufacturer
Resehetnev ISS
Mission
Operational Commercial Communications
Bus & Motor
EKSPRESS-2000, AOCS
Mass
3,361 kg wet, ~2,500 kg dry
Launch date (UTC)
2014-10-21 (11 years ago)
Launch vehicle
PROTON-M/BRIZ-M
Launch site
Tyuratam Missile And Space Complex (TTMTR)
Object type
Payload
Rocket body
Debris
Shape & HBR
Cyl + 2 Pan, 13.5 m
Radar Cross Section
24.423 m², Large (>1 m²)

Expand to show TLE details & history
Last TLE update: 9 hours ago

TLE from 9 hours ago
0 EXPRESS AM-6
1 40277U 14064A   25348.42696095  .00000116  00000-0  00000+0 0  9995
2 40277   0.0132 283.3375 0000493  41.6066 325.1129  1.00273626 39718
Epoch: 2025-12-14T10:14Z
TLE epoch observation values (Epoch: 2025-12-14T10:14:49.426Z)
Latitude
-0.00694°
Longitude
52.99823°
Altitude
35,783.867 km
Speed
3.075 km/s
True Right ascension
19h 20m 10s
True Declination
0° 00' 25"
Sunlit
Object was in daylight at epoch
Visualization orbit readout
Latitude
Unknown
Longitude
Unknown
Altitude
Unknown
Speed
Unknown
Apparent Right ascension
Unknown
Apparent Declination
Unknown
Sunlit
N/A
Visualization observer readout
Local Sidereal Time
18:15:21
Azimuth
Unknown
Elevation
Unknown
Doppler factor
Unknown
Orbital elements
Apogee altitude
35,789.228 km
Perigee altitude
35,785.071 km
Semi-major axis
42,165.286 km
Eccentricity
0.00005
Inclination
0.0132°
RAAN
283.3375°
Arg. of periapsis
41.6066°
True anomaly
325.10967°
Mean anomaly
325.1129°
Eccentric anomaly
325.11128°
Mean motion
0.25067 °/min
Orbital period
1,436.12 mins
BSTAR
0
Loading maneuver chart data...
Computing Atmospheric mass density...
Loading historical data...
Loading historical data...
Loading historical data...
Loading historical data...
Loading historical data...
Loading historical data...
Loading historical data...
Other satellites on launch #64 in the year 2014 (2014-10-21 UTC)

Documentation

Showing up to 5 results
|